Retour au catalogue

THOR ABLESTAR DEB

ActifLEO
NORAD 329·DEBRIS·🇺🇸 United States

Lancé Jun 29, 1961 depuis Cape Canaveral Space Force Station

Loading…

Prochains Passages (prochaines 24 heures)

TLE

FraisSource: Space-Track

Époque: Sep 14, 2026, 03:46 UTC

1 00329U 61015DF  26257.15694781  .00000030  00000-0  11858-3 0  9999
2 00329  66.7807 165.9109 0120315 294.4095 214.8384 13.66146827242165

Suivez THOR ABLESTAR DEB en temps réel avec AllMySat

Download on the App Store